Погода в Кяхте

Погода в Кяхте : погода сейчас, прогноз погоды и архив. Всё, что Вы хотите узнать о погоде в Кяхте!

Поиск расширенной информации на нашем сайте:

Другие новости

Новости СМИ2

Главная страница сайта

Новости сайта

03.07.2017

Напоминаем, что на нашем специализированном сайте Метеоцентр.Азия вы можете получить высокодетализированные автоматические прогнозы погоды по пунктам России, СНГ и мира в авиационном формате (включающие направление и скорость ветра, видимость, явления погоды, количество и форму облачности, нижнюю и верхнюю границу облачности).


Погода в Кяхте - сегодня

Время (UTC), дата Ветер
(°,м/с) 
Видим.   Явления Облачность Т
(°С)
Тd
(°С)
f(%) Тe
(°С)
Pmin
(гПа)
dP
(гПа)
Po
(мм)
O2
(г/м3)
Тmin Tmax R s Состояние
почвы
09 26.07.17 190 (Ю) 20000 м    6/6 600 м 
[Sc]
+25.2 +7.8 33 +25  1004.3  -0.6  688  252           
12 26.07.17 200 (Ю) 20000 м    4/1 600 м верхняя 
[Sc|Cs]
+22.9 +7.8 38 +23  1005.6  0.5  689  255    +25.7       
15 26.07.17 тихо ()   н/о    6/1 1000 м средняя, верхняя 
[Cu hum|Ac lent|Ci fib]
+15.6 +8.9 64 +17  1009.1  1.1  689  261           
18 26.07.17 тихо ()   н/о    4/1 2000 м средняя, верхняя 
[Ac As|Cs]
+13.8 +7.5 66 +14  1009.7  0.1  690  263           
21 26.07.17 тихо ()   20000 м    3/3 2000 м средняя, верхняя 
[Ac As|Ci fib]
+12.9 +7.8 71 +13  1010.5  0.4  690  264           
00 27.07.17 170 (Ю) 20000 м    3/0 верхняя 
[Ci fib]
+19.6 +9 50 +21  1008.6  0.2  690  258  +11.3        сухая 
03 27.07.17 140 (ЮВ) 20000 м    1/0 верхняя 
[Ci fib]
+25.7 +8.2 33 +26  1006.4  -0.3  690  253           
06 27.07.17 190 (Ю) 4{12}  20000 м    3/1 1000 м средняя, верхняя 
[Cu hum|Ac lent|Ci fib]
+29.9 +7.1 24 +30  1003.3  -1.6  689  249           
09 27.07.17 160 (Ю) 3{10}  20000 м    8/3 600 м кучево-дожд., средняя, верхняя 
[Cb cap|Ac trans|Cs]
+30.8 +6.6 22 +31  1001.6  -1.4  688  248           
12 27.07.17 270 (З) 20000 м    9/4 600 м кучево-дожд., средняя 
[Cb cap|Ac As]
+28 +6.7 26 +28  1002.3  -0.1  687  250    +31.6       
15 27.07.17 330 (СЗ) н/о  зарница  10/5 600 м кучево-дожд., средняя 
[Cb cap|Ac As]
+24.6 +8.9 37 +26  1004  0.6  688  253           
18 27.07.17 250 (З) н/о    3/3 2000 м средняя 
[Ac As]
+18.7 +10.3 58 +23  1006.2  0.5  688  258           
21 27.07.17 180 (Ю) 20000 м  {ливн. осадки}  9/5 600 м кучево-дожд., средняя, верхняя 
[Cb cap|Ac As|Ci fib]
+18.7 +11.5 63 +25  1006.3  0.1  688  257           
00 28.07.17 020 (С) 20000 м  {ливн. осадки}  4/1 600 м кучево-дожд., средняя, верхняя 
[Cb cap|Ac trans|Ci fib]
+22.1 +10.9 49 +26  1007.2  1.7  690  255  +18    0.0    сухая 
03 28.07.17 060 (СВ) 20000 м    3/1 2000 м средняя, верхняя 
[Ac trans|Ci fib]
+27.8 +8.6 30 +29  1004.9  -0.6  689  250           
06 28.07.17 150 (ЮВ) 20000 м    3/3 1000 м 
[Cu hum]
+30.7 +9 26 +32  1002.7  -1.2  688  248           
09 28.07.17 350 (С) 20000 м    8/3 1000 м верхняя 
[Cu med, cong|Ci fib]
+31.7 +1.9 15 +32  1001.1  -1.3  687  248           
12 28.07.17 350 (С) 20000 м    10/3 1000 м средняя, верхняя 
[Sc|Ac cuf|Ci fib]
+28 +8.3 29 +29  1002.3  0.2  687  250    +32.6       
15 28.07.17 170 (Ю) н/о    6/6 2000 м средняя 
[Ac cuf]
+21.4 +9.9 48 +24  1005.5  1.2  688  255           
18 28.07.17 320 (СЗ) н/о    6/6 2000 м средняя 
[Ac cuf]
+20.8 +8.8 46 +22  1005.9  0.1  688  256           
21 28.07.17 360 (С) 20000 м    3/3 2000 м средняя 
[Ac cast]
+18.3 +9.1 55 +22  1006.6  688  258           
00 29.07.17 150 (ЮВ) 20000 м    1/1 2000 м средняя 
[Ac cast]
+23.3 +9.7 42 +26  1005.3  0.2  689  254  +16.9        сухая 
03 29.07.17 070 (В) 20000 м    6/3 1000 м средняя 
[Cu hum|Ac lent]
+28.7 +7.3 26 +29  1002.8  -0.8  688  250           
06 29.07.17 110 (В) 20000 м    4/3 600 м кучево-дожд., средняя 
[Cb cap|Ac lent]
+32 +6.9 21 +32  999.4  -2.3  686  246           
09 29.07.17 200 (Ю) 20000 м    4/4 600 м кучево-дожд. 
[Cb cap]
+32.7 +6.8 20 +33  997  -2  685  245           
Время (UTC), дата Ветер
(°,м/с) 
Видим.   Явления Облачность Т
(°С)
Тd
(°С)
f(%) Тe
(°С)
Pmin
(гПа)
dP
(гПа)
Po
(мм)
O2
(г/м3)
Тmin Tmax R s Состояние
почвы

Для получения пояснительной информации подведите курсор к названию столбца.

ПОГОДА в Кяхте - архив

Всё, что Вы хотите узнать о погоде в Кяхте - удобно и подробно!

Выберите нужную дату (начиная с 1 января 2015* года) и нажмите кнопку "Найти".
Будут отображены архивные сводки погоды по пункту Кяхта, начиная с указанной даты.


Отображать данные в формате CSV (для использования в таблицах Excel)


Внимание! Наш архив погоды предназначен исключительно для личного некоммерческого использования в познавательных целях. Если Вам необходимы официальные справки о состоянии погоды (для производственных, юридических, коммерческих и т.п. целей), обращайтесь в органы Росгидромета.

*Примечание: данная дата относится к архиву по метеостанциям СССР (Россия, СНГ, Балтия).
Архив по метеостанциям Зарубежной Европы и Азии (кроме Китая) хранится 10 дней, по другим регионам земного шара (Китай, Африка, Америка, Австралия, Океания) - 1 день.

Кяхта - район местоположения метеостанции


Название, широта, долгота, высота метеостанции:
Кяхта 50.4°ш. 106.4°д. 797 м над ур. моря [Российская Федерация]

Дополнительная информация

В oтличие oт бoльшинства пoгoдных сайтoв мы публикуем пoдрoбную метеoинфoрмацию в детальнoм прoфессиoнальнoм фoрмате.

Характеристики температуры и влажнoсти вoздуха измеряются на высoте 2 м в тени вдали oт зданий и деревьев.
Скoрoсть ветра измеряется на высoте 10 м (на урoвне рoста челoвека скoрoсть ветра ниже в 1.5-2 раза). Если метеoстанция нахoдится в гoрoде или в лесу, тo скoрoсть ветра занижена на 2-4 м/с пo сравнению с oткрытым местoм. Скoрoсть ветра над акватoриями крупных рек и oзёр, а также на вершинах хoлмoв на 2-5 м/с выше, чем в oбычных услoвиях.
Атмoсфернoе давление в разных тoчках местнoсти мoжет значительнo oтличаться oт давления на метеoстанции, в зависимoсти oт услoвий рельефа (при пoдъёме на 10 м давление пoнижается примернo на 1 мм рт.ст.).